User: anonymous
Location: Caltech
(34.1382°N, 118.1253°W)
Time: 03:26:51
(UTC-07:00)
Language:

Uribyol 2 - Orbit

View from above orbital plane
View from above orbital plane
View from above satellite
View from above satellite

Ground track
Ground track

The orbit data is extracted from the following two-line orbital elements,

1 22828U 93061F   14273.89722393  .00000161  00000-0  79009-4 0  7266
2 22828 098.6589 218.9351 0008928 315.3468 044.6995 14.30350215 64354
Epoch (UTC): 30 September 2014 21:32:00
Eccentricity: 0.0008928
inclination: 98.6589°
perigee height: 784 km
apogee height: 797 km
right ascension of ascending node: 218.9351°
argument of perigee: 315.3468°
revolutions per day: 14.30350215
mean anomaly at epoch: 44.6995°
orbit number at epoch: 6435

The dashed part of the orbit path shows where the satellite is in the earth's shadow,  

DLR